Location: *
(48.8780°N, 19.2358°E)
Time: 21:51:16
(UTC+00:00)

STARLINK-55 - Pass Details

Date: 18 October 2019
Orbit: 548 x 551 km, 53.0° (Epoch: 10 November)

Event Time Altitude Azimuth Distance (km) Brightness Sun altitude
Rises 17:56:11 0° 277° (W) 2,717 8.7 -21.7°
Reaches altitude 10° 17:58:30 10° 283° (WNW) 1,824 7.4 -22.1°
Maximum altitude 18:02:30 46° 358° (N) 742 4.3 -22.7°
Enters shadow 18:02:48 45° 13° (NNE) 753 4.2 -22.8°
